| time (UTC) | temp F | wind direction | speed MPH | gust MPH | rain 1hr in | rain 24hr in | rain mn in | humidity % | barometer mb |
| 20260508065407 | 64 | 130 | 1.0 | 5.0 | 0.00 | 0.00 | 0.00 | 33 | |
| 20260508064920 | 64 | 133 | 3.0 | 5.0 | 0.00 | 0.00 | 0.00 | 33 | |
| 20260508064409 | 64 | 125 | 3.0 | 4.0 | 0.00 | 0.00 | 0.00 | 32 | |
| 20260508063907 | 64 | 116 | 1.0 | 4.0 | 0.00 | 0.00 | 0.00 | 31 | |
| 20260508063409 | 64 | 136 | 0.0 | 2.0 | 0.00 | 0.00 | 0.00 | 32 | |
| 20260508063020 | 64 | 181 | 0.0 | 3.0 | 0.00 | 0.00 | 0.00 | 30 | |
| 20260508062907 | 64 | 181 | 0.0 | 3.0 | 0.00 | 0.00 | 0.00 | 30 | |
| 20260508062407 | 64 | 193 | 0.0 | 8.0 | 0.00 | 0.00 | 0.00 | 29 | |
| 20260508061942 | 64 | 210 | 4.0 | 8.0 | 0.00 | 0.00 | 0.00 | 31 | |
| 20260508061906 | 64 | 210 | 4.0 | 8.0 | 0.00 | 0.00 | 0.00 | 31 | |
| 20260508061529 | 64 | 215 | 3.0 | 8.0 | 0.00 | 0.00 | 0.00 | 30 | |
| 20260508061409 | 64 | 215 | 3.0 | 8.0 | 0.00 | 0.00 | 0.00 | 30 | |
| 20260508061123 | 64 | 0 | 0.0 | 0.0 | 0.00 | 0.00 | 0.00 | 28 | |
| 20260508061024 | 64 | 0 | 0.0 | 0.0 | 0.00 | 0.00 | 0.00 | 28 | |
| 20260508060907 | 64 | 0 | 0.0 | 0.0 | 0.00 | 0.00 | 0.00 | 28 | |
| 20260508060525 | 64 | 1 | 0.0 | 0.0 | 0.00 | 0.00 | 0.00 | 28 | |
| 20260508060408 | 64 | 1 | 0.0 | 0.0 | 0.00 | 0.00 | 0.00 | 28 | |
| 20260508055939 | 65 | 2 | 0.0 | 0.0 | 0.00 | 0.00 | 0.00 | 28 | |
| 20260508055906 | 65 | 2 | 0.0 | 0.0 | 0.00 | 0.00 | 0.00 | 28 | |
| 20260508055454 | 65 | 27 | 0.0 | 1.0 | 0.00 | 0.00 | 0.00 | 28 | |
| 20260508055408 | 65 | 27 | 0.0 | 1.0 | 0.00 | 0.00 | 0.00 | 28 | |
| 20260508054944 | 66 | 62 | 0.0 | 2.0 | 0.00 | 0.00 | 0.00 | 27 | |
| 20260508054906 | 66 | 62 | 0.0 | 2.0 | 0.00 | 0.00 | 0.00 | 27 | |
| 20260508054450 | 66 | 7 | 0.0 | 3.0 | 0.00 | 0.00 | 0.00 | 27 | |
| 20260508054406 | 66 | 7 | 0.0 | 3.0 | 0.00 | 0.00 | 0.00 | 27 | |
| 20260508053945 | 67 | 19 | 0.0 | 3.0 | 0.00 | 0.00 | 0.00 | 28 | |
| 20260508053906 | 67 | 19 | 0.0 | 3.0 | 0.00 | 0.00 | 0.00 | 28 | |
| 20260508053406 | 68 | 300 | 0.0 | 2.0 | 0.00 | 0.00 | 0.00 | 27 | |
| 20260508052907 | 69 | 185 | 0.0 | 3.0 | 0.00 | 0.00 | 0.00 | 29 | |
| 20260508052450 | 70 | 193 | 1.0 | 5.0 | 0.00 | 0.00 | 0.00 | 28 | |
| 20260508052406 | 70 | 193 | 1.0 | 5.0 | 0.00 | 0.00 | 0.00 | 28 | |
| 20260508051945 | 71 | 208 | 3.0 | 5.0 | 0.00 | 0.00 | 0.00 | 28 | |
| 20260508051906 | 71 | 208 | 3.0 | 5.0 | 0.00 | 0.00 | 0.00 | 28 | |
| 20260508051453 | 72 | 198 | 3.0 | 6.0 | 0.00 | 0.00 | 0.00 | 28 | |
| 20260508051406 | 72 | 198 | 3.0 | 6.0 | 0.00 | 0.00 | 0.00 | 28 | |
| 20260508051008 | 71 | 197 | 3.0 | 9.0 | 0.00 | 0.00 | 0.00 | 29 | |
| 20260508050906 | 71 | 197 | 3.0 | 9.0 | 0.00 | 0.00 | 0.00 | 29 | |
| 20260508050406 | 70 | 187 | 5.0 | 9.0 | 0.00 | 0.00 | 0.00 | 28 | |
| 20260508045940 | 70 | 193 | 3.0 | 5.0 | 0.00 | 0.00 | 0.00 | 28 | |
| 20260508045906 | 70 | 193 | 3.0 | 5.0 | 0.00 | 0.00 | 0.00 | 28 | |
| 20260508045507 | 70 | 181 | 3.0 | 7.0 | 0.00 | 0.00 | 0.00 | 28 | |
| 20260508044943 | 70 | 178 | 3.0 | 7.0 | 0.00 | 0.00 | 0.00 | 27 | |
| 20260508044906 | 70 | 178 | 3.0 | 7.0 | 0.00 | 0.00 | 0.00 | 27 | |
| 20260508044447 | 70 | 184 | 4.0 | 7.0 | 0.00 | 0.00 | 0.00 | 28 | |
| 20260508044408 | 70 | 184 | 4.0 | 7.0 | 0.00 | 0.00 | 0.00 | 28 | |
| 20260508044048 | 70 | 228 | 3.0 | 8.0 | 0.00 | 0.00 | 0.00 | 28 | |
| 20260508043906 | 70 | 228 | 3.0 | 8.0 | 0.00 | 0.00 | 0.00 | 28 | |
| 20260508043437 | 70 | 200 | 4.0 | 8.0 | 0.00 | 0.00 | 0.00 | 28 | |
| 20260508043406 | 70 | 200 | 4.0 | 8.0 | 0.00 | 0.00 | 0.00 | 28 | |
| 20260508043038 | 70 | 190 | 4.0 | 8.0 | 0.00 | 0.00 | 0.00 | 28 | |
| 20260508042956 | 70 | 190 | 4.0 | 8.0 | 0.00 | 0.00 | 0.00 | 28 | |
| 20260508042906 | 70 | 190 | 4.0 | 8.0 | 0.00 | 0.00 | 0.00 | 28 | |
| 20260508042407 | 69 | 191 | 4.0 | 8.0 | 0.00 | 0.00 | 0.00 | 29 | |
| 20260508041951 | 68 | 197 | 4.0 | 8.0 | 0.00 | 0.00 | 0.00 | 30 | |
| 20260508041906 | 68 | 197 | 4.0 | 8.0 | 0.00 | 0.00 | 0.00 | 30 | |
| 20260508041445 | 66 | 198 | 4.0 | 6.0 | 0.00 | 0.00 | 0.00 | 31 | |
| 20260508041406 | 66 | 198 | 4.0 | 6.0 | 0.00 | 0.00 | 0.00 | 31 | |
| 20260508040949 | 66 | 202 | 2.0 | 5.0 | 0.00 | 0.00 | 0.00 | 31 | |
| 20260508040907 | 66 | 202 | 2.0 | 5.0 | 0.00 | 0.00 | 0.00 | 31 | |
| 20260508040438 | 66 | 130 | 0.0 | 0.0 | 0.00 | 0.00 | 0.00 | 28 | |
| 20260508040406 | 66 | 130 | 0.0 | 0.0 | 0.00 | 0.00 | 0.00 | 28 | |
| 20260508040009 | 66 | 5 | 0.0 | 0.0 | 0.00 | 0.00 | 0.00 | 26 | |
| 20260508035906 | 66 | 5 | 0.0 | 0.0 | 0.00 | 0.00 | 0.00 | 26 | |
| 20260508035536 | 66 | 52 | 0.0 | 0.0 | 0.00 | 0.00 | 0.00 | 26 | |
| 20260508035502 | 66 | 52 | 0.0 | 0.0 | 0.00 | 0.00 | 0.00 | 26 | |
| 20260508035406 | 66 | 52 | 0.0 | 0.0 | 0.00 | 0.00 | 0.00 | 26 | |
| 20260508035024 | 67 | 11 | 0.0 | 0.0 | 0.00 | 0.00 | 0.00 | 26 | |
| 20260508034952 | 67 | 11 | 0.0 | 0.0 | 0.00 | 0.00 | 0.00 | 26 | |
| 20260508034906 | 67 | 11 | 0.0 | 0.0 | 0.00 | 0.00 | 0.00 | 26 | |
| 20260508034406 | 69 | 6 | 0.0 | 2.0 | 0.00 | 0.00 | 0.00 | 25 | |
| 20260508034011 | 70 | 29 | 0.0 | 4.0 | 0.00 | 0.00 | 0.00 | 25 | |
| 20260508033906 | 70 | 29 | 0.0 | 4.0 | 0.00 | 0.00 | 0.00 | 25 | |
| 20260508033437 | 71 | 169 | 2.0 | 6.0 | 0.00 | 0.00 | 0.00 | 26 | |
| 20260508033406 | 71 | 169 | 2.0 | 6.0 | 0.00 | 0.00 | 0.00 | 26 | |
| 20260508033106 | 72 | 193 | 3.0 | 6.0 | 0.00 | 0.00 | 0.00 | 27 | |
| 20260508032907 | 72 | 193 | 3.0 | 6.0 | 0.00 | 0.00 | 0.00 | 27 | |
| 20260508032452 | 72 | 200 | 4.0 | 9.0 | 0.00 | 0.00 | 0.00 | 28 | |
| 20260508032406 | 72 | 200 | 4.0 | 9.0 | 0.00 | 0.00 | 0.00 | 28 | |
| 20260508031957 | 72 | 197 | 5.0 | 9.0 | 0.00 | 0.00 | 0.00 | 28 | |
| 20260508031907 | 72 | 197 | 5.0 | 9.0 | 0.00 | 0.00 | 0.00 | 28 | |
| 20260508031451 | 73 | 196 | 5.0 | 8.0 | 0.00 | 0.00 | 0.00 | 27 | |
| 20260508031406 | 73 | 196 | 5.0 | 8.0 | 0.00 | 0.00 | 0.00 | 27 | |
| 20260508030952 | 74 | 201 | 4.0 | 9.0 | 0.00 | 0.00 | 0.00 | 27 | |
| 20260508030907 | 74 | 201 | 4.0 | 9.0 | 0.00 | 0.00 | 0.00 | 27 | |
| 20260508030449 | 74 | 219 | 6.0 | 13.0 | 0.00 | 0.00 | 0.00 | 28 | |
| 20260508030406 | 74 | 219 | 6.0 | 13.0 | 0.00 | 0.00 | 0.00 | 28 | |
| 20260508025906 | 74 | 225 | 7.0 | 15.0 | 0.00 | 0.00 | 0.00 | 29 | |
| 20260508025442 | 74 | 223 | 10.0 | 15.0 | 0.00 | 0.00 | 0.00 | 28 | |
| 20260508025406 | 74 | 223 | 10.0 | 15.0 | 0.00 | 0.00 | 0.00 | 28 | |
| 20260508025020 | 75 | 231 | 10.0 | 16.0 | 0.00 | 0.00 | 0.00 | 28 | |
| 20260508024906 | 75 | 231 | 10.0 | 16.0 | 0.00 | 0.00 | 0.00 | 28 | |
| 20260508024406 | 75 | 225 | 10.0 | 16.0 | 0.00 | 0.00 | 0.00 | 28 | |
| 20260508024037 | 75 | 229 | 10.0 | 16.0 | 0.00 | 0.00 | 0.00 | 29 | |
| 20260508024002 | 75 | 229 | 10.0 | 16.0 | 0.00 | 0.00 | 0.00 | 29 | |
| 20260508023906 | 75 | 229 | 10.0 | 16.0 | 0.00 | 0.00 | 0.00 | 29 | |
| 20260508023407 | 75 | 223 | 9.0 | 16.0 | 0.00 | 0.00 | 0.00 | 29 | |
| 20260508022906 | 76 | 226 | 11.0 | 18.0 | 0.00 | 0.00 | 0.00 | 29 | |
| 20260508022411 | 77 | 229 | 13.0 | 18.0 | 0.00 | 0.00 | 0.00 | 30 | |
| 20260508022050 | 78 | 258 | 10.0 | 17.0 | 0.00 | 0.00 | 0.00 | 31 | |
| 20260508022017 | 78 | 258 | 10.0 | 17.0 | 0.00 | 0.00 | 0.00 | 31 | |
| 20260508021906 | 78 | 258 | 10.0 | 17.0 | 0.00 | 0.00 | 0.00 | 31 | |
| 20260508021517 | 79 | 247 | 10.0 | 18.0 | 0.00 | 0.00 | 0.00 | 31 | |
| 20260508021406 | 79 | 247 | 10.0 | 18.0 | 0.00 | 0.00 | 0.00 | 31 | |
| 20260508021123 | 81 | 261 | 11.0 | 18.0 | 0.00 | 0.00 | 0.00 | 29 | |
| 20260508020907 | 81 | 261 | 11.0 | 18.0 | 0.00 | 0.00 | 0.00 | 29 | |
| 20260508020449 | 81 | 271 | 7.0 | 14.0 | 0.00 | 0.00 | 0.00 | 28 | |
| 20260508020406 | 81 | 271 | 7.0 | 14.0 | 0.00 | 0.00 | 0.00 | 28 | |
| 20260508020010 | 82 | 277 | 6.0 | 14.0 | 0.00 | 0.00 | 0.00 | 29 | |
| 20260508015906 | 82 | 277 | 6.0 | 14.0 | 0.00 | 0.00 | 0.00 | 29 | |
| 20260508015521 | 82 | 242 | 5.0 | 9.0 | 0.00 | 0.00 | 0.00 | 32 | |
| 20260508015406 | 82 | 242 | 5.0 | 9.0 | 0.00 | 0.00 | 0.00 | 32 | |
| 20260508015004 | 83 | 226 | 6.0 | 10.0 | 0.00 | 0.00 | 0.00 | 32 | |
| 20260508014906 | 83 | 226 | 6.0 | 10.0 | 0.00 | 0.00 | 0.00 | 32 | |
| 20260508014438 | 83 | 221 | 8.0 | 10.0 | 0.00 | 0.00 | 0.00 | 32 | |
| 20260508014406 | 83 | 221 | 8.0 | 10.0 | 0.00 | 0.00 | 0.00 | 32 | |
| 20260508014130 | 83 | 210 | 8.0 | 13.0 | 0.00 | 0.00 | 0.00 | 31 | |
| 20260508013906 | 83 | 210 | 8.0 | 13.0 | 0.00 | 0.00 | 0.00 | 31 | |
| 20260508013437 | 84 | 218 | 9.0 | 14.0 | 0.00 | 0.00 | 0.00 | 31 | |
| 20260508013406 | 84 | 218 | 9.0 | 14.0 | 0.00 | 0.00 | 0.00 | 31 | |
| 20260508013007 | 85 | 219 | 8.0 | 14.0 | 0.00 | 0.00 | 0.00 | 31 | |
| 20260508012910 | 85 | 219 | 8.0 | 14.0 | 0.00 | 0.00 | 0.00 | 31 | |
| 20260508012503 | 86 | 217 | 9.0 | 14.0 | 0.00 | 0.00 | 0.00 | 28 | |
| 20260508012406 | 86 | 217 | 9.0 | 14.0 | 0.00 | 0.00 | 0.00 | 28 | |
| 20260508011906 | 88 | 199 | 7.0 | 10.0 | 0.00 | 0.00 | 0.00 | 25 | |
| 20260508011457 | 89 | 182 | 5.0 | 10.0 | 0.00 | 0.00 | 0.00 | 23 | |
| 20260508011406 | 89 | 182 | 5.0 | 10.0 | 0.00 | 0.00 | 0.00 | 23 | |
| 20260508010938 | 90 | 197 | 4.0 | 7.0 | 0.00 | 0.00 | 0.00 | 26 | |
| 20260508010907 | 90 | 197 | 4.0 | 7.0 | 0.00 | 0.00 | 0.00 | 26 | |
| 20260508010438 | 90 | 221 | 3.0 | 8.0 | 0.00 | 0.00 | 0.00 | 28 | |
| 20260508010406 | 90 | 221 | 3.0 | 8.0 | 0.00 | 0.00 | 0.00 | 28 | |
| 20260508010010 | 90 | 236 | 5.0 | 9.0 | 0.00 | 0.00 | 0.00 | 31 | |
| 20260508005906 | 90 | 236 | 5.0 | 9.0 | 0.00 | 0.00 | 0.00 | 31 | |
| 20260508005538 | 91 | 251 | 5.0 | 10.0 | 0.00 | 0.00 | 0.00 | 31 | |
| 20260508005441 | 91 | 251 | 5.0 | 10.0 | 0.00 | 0.00 | 0.00 | 31 | |
| 20260508005406 | 91 | 251 | 5.0 | 10.0 | 0.00 | 0.00 | 0.00 | 31 | |
| 20260508005022 | 91 | 256 | 6.0 | 12.0 | 0.00 | 0.00 | 0.00 | 31 | |
| 20260508004906 | 91 | 256 | 6.0 | 12.0 | 0.00 | 0.00 | 0.00 | 31 | |
| 20260508004500 | 92 | 268 | 5.0 | 12.0 | 0.00 | 0.00 | 0.00 | 30 | |
| 20260508004406 | 92 | 268 | 5.0 | 12.0 | 0.00 | 0.00 | 0.00 | 30 | |
| 20260508004024 | 92 | 239 | 6.0 | 10.0 | 0.00 | 0.00 | 0.00 | 30 | |
| 20260508003907 | 92 | 239 | 6.0 | 10.0 | 0.00 | 0.00 | 0.00 | 30 | |
| 20260508003438 | 92 | 322 | 2.0 | 8.0 | 0.00 | 0.00 | 0.00 | 25 | |
| 20260508003407 | 92 | 322 | 2.0 | 8.0 | 0.00 | 0.00 | 0.00 | 25 | |
| 20260508002946 | 92 | 224 | 3.0 | 8.0 | 0.00 | 0.00 | 0.00 | 28 | |
| 20260508002907 | 92 | 224 | 3.0 | 8.0 | 0.00 | 0.00 | 0.00 | 28 | |
| 20260508002437 | 92 | 276 | 4.0 | 8.0 | 0.00 | 0.00 | 0.00 | 27 | |
| 20260508002407 | 92 | 276 | 4.0 | 8.0 | 0.00 | 0.00 | 0.00 | 27 | |
| 20260508001907 | 92 | 271 | 3.0 | 7.0 | 0.00 | 0.00 | 0.00 | 27 | |
| 20260508001446 | 92 | 229 | 2.0 | 6.0 | 0.00 | 0.00 | 0.00 | 27 | |
| 20260508001407 | 92 | 229 | 2.0 | 6.0 | 0.00 | 0.00 | 0.00 | 27 | |
| 20260508001026 | 92 | 247 | 3.0 | 6.0 | 0.00 | 0.00 | 0.00 | 29 | |
| 20260508000907 | 92 | 247 | 3.0 | 6.0 | 0.00 | 0.00 | 0.00 | 29 | |
| 20260508000438 | 92 | 254 | 3.0 | 5.0 | 0.00 | 0.00 | 0.00 | 28 | |
| 20260508000406 | 92 | 254 | 3.0 | 5.0 | 0.00 | 0.00 | 0.00 | 28 | |
| 20260507235906 | 90 | 239 | 3.0 | 5.0 | 0.00 | 0.00 | 0.00 | 25 | |
| 20260507235442 | 86 | 172 | 2.0 | 4.0 | 0.00 | 0.00 | 0.00 | 22 | |
| 20260507235407 | 86 | 172 | 2.0 | 4.0 | 0.00 | 0.00 | 0.00 | 22 | |
| 20260507235023 | 83 | 86 | 1.0 | 2.0 | 0.00 | 0.00 | 0.00 | 22 | |
| 20260507234949 | 83 | 86 | 1.0 | 2.0 | 0.00 | 0.00 | 0.00 | 22 | |
| 20260507234907 | 83 | 86 | 1.0 | 2.0 | 0.00 | 0.00 | 0.00 | 22 | |
| 20260507234544 | 83 | 42 | 0.0 | 3.0 | 0.00 | 0.00 | 0.00 | 23 | |
| 20260507234406 | 83 | 42 | 0.0 | 3.0 | 0.00 | 0.00 | 0.00 | 23 | |
| 20260507234004 | 83 | 81 | 1.0 | 6.0 | 0.00 | 0.00 | 0.00 | 21 | |
| 20260507233907 | 83 | 81 | 1.0 | 6.0 | 0.00 | 0.00 | 0.00 | 21 | |
| 20260507233409 | 84 | 55 | 3.0 | 7.0 | 0.00 | 0.00 | 0.00 | 22 | |
| 20260507232949 | 84 | 91 | 3.0 | 7.0 | 0.00 | 0.00 | 0.00 | 20 | |
| 20260507232907 | 84 | 91 | 3.0 | 7.0 | 0.00 | 0.00 | 0.00 | 20 | |
| 20260507232437 | 84 | 67 | 4.0 | 7.0 | 0.00 | 0.00 | 0.00 | 22 | |
| 20260507231907 | 85 | 56 | 3.0 | 7.0 | 0.00 | 0.00 | 0.00 | 22 | |
| 20260507231513 | 87 | 57 | 3.0 | 10.0 | 0.00 | 0.00 | 0.00 | 21 | |
| 20260507231407 | 87 | 57 | 3.0 | 10.0 | 0.00 | 0.00 | 0.00 | 21 | |
| 20260507230907 | 89 | 61 | 5.0 | 15.0 | 0.00 | 0.00 | 0.00 | 21 | |
| 20260507230407 | 92 | 35 | 6.0 | 15.0 | 0.00 | 0.00 | 0.00 | 22 | |
| 20260507225946 | 92 | 45 | 5.0 | 11.0 | 0.00 | 0.00 | 0.00 | 22 | |
| 20260507225907 | 92 | 45 | 5.0 | 11.0 | 0.00 | 0.00 | 0.00 | 22 | |
| 20260507225444 | 92 | 47 | 4.0 | 12.0 | 0.00 | 0.00 | 0.00 | 22 | |
| 20260507225407 | 92 | 47 | 4.0 | 12.0 | 0.00 | 0.00 | 0.00 | 22 | |
| 20260507224951 | 93 | 22 | 6.0 | 12.0 | 0.00 | 0.00 | 0.00 | 24 | |
| 20260507224907 | 93 | 22 | 6.0 | 12.0 | 0.00 | 0.00 | 0.00 | 24 | |
| 20260507224534 | 93 | 277 | 3.0 | 8.0 | 0.00 | 0.00 | 0.00 | 25 | |
| 20260507224407 | 93 | 277 | 3.0 | 8.0 | 0.00 | 0.00 | 0.00 | 25 | |
| 20260507224025 | 91 | 277 | 4.0 | 8.0 | 0.00 | 0.00 | 0.00 | 25 | |
| 20260507223907 | 91 | 277 | 4.0 | 8.0 | 0.00 | 0.00 | 0.00 | 25 | |
| 20260507223448 | 88 | 269 | 3.0 | 6.0 | 0.00 | 0.00 | 0.00 | 25 | |
| 20260507223407 | 88 | 269 | 3.0 | 6.0 | 0.00 | 0.00 | 0.00 | 25 | |
| 20260507223013 | 88 | 279 | 2.0 | 7.0 | 0.00 | 0.00 | 0.00 | 24 | |
| 20260507222907 | 88 | 279 | 2.0 | 7.0 | 0.00 | 0.00 | 0.00 | 24 | |
| 20260507222517 | 88 | 21 | 2.0 | 13.0 | 0.00 | 0.00 | 0.00 | 22 | |
| 20260507222407 | 88 | 21 | 2.0 | 13.0 | 0.00 | 0.00 | 0.00 | 22 | |
| 20260507222022 | 88 | 51 | 5.0 | 13.0 | 0.00 | 0.00 | 0.00 | 21 | |
| 20260507221907 | 88 | 51 | 5.0 | 13.0 | 0.00 | 0.00 | 0.00 | 21 | |
| 20260507221442 | 89 | 53 | 5.0 | 8.0 | 0.00 | 0.00 | 0.00 | 20 | |
| 20260507221407 | 89 | 53 | 5.0 | 8.0 | 0.00 | 0.00 | 0.00 | 20 | |
| 20260507221009 | 90 | 30 | 2.0 | 10.0 | 0.00 | 0.00 | 0.00 | 19 | |
| 20260507220907 | 90 | 30 | 2.0 | 10.0 | 0.00 | 0.00 | 0.00 | 19 | |
| 20260507220438 | 90 | 32 | 4.0 | 10.0 | 0.00 | 0.00 | 0.00 | 20 | |
| 20260507220407 | 90 | 32 | 4.0 | 10.0 | 0.00 | 0.00 | 0.00 | 20 | |
| 20260507215954 | 92 | 22 | 4.0 | 9.0 | 0.00 | 0.00 | 0.00 | 20 | |
| 20260507215907 | 92 | 22 | 4.0 | 9.0 | 0.00 | 0.00 | 0.00 | 20 | |
| 20260507215407 | 92 | 29 | 5.0 | 13.0 | 0.00 | 0.00 | 0.00 | 23 | |
| 20260507214957 | 95 | 15 | 7.0 | 13.0 | 0.00 | 0.00 | 0.00 | 32 | |
| 20260507214907 | 95 | 15 | 7.0 | 13.0 | 0.00 | 0.00 | 0.00 | 32 | |
| 20260507214449 | 95 | 310 | 4.0 | 7.0 | 0.00 | 0.00 | 0.00 | 32 | |
| 20260507214407 | 95 | 310 | 4.0 | 7.0 | 0.00 | 0.00 | 0.00 | 32 | |
| 20260507213907 | 94 | 264 | 3.0 | 7.0 | 0.00 | 0.00 | 0.00 | 33 | |
| 20260507213407 | 92 | 268 | 2.0 | 10.0 | 0.00 | 0.00 | 0.00 | 33 | |
| 20260507212955 | 91 | 280 | 4.0 | 10.0 | 0.00 | 0.00 | 0.00 | 33 | |
| 20260507212909 | 91 | 280 | 4.0 | 10.0 | 0.00 | 0.00 | 0.00 | 33 | |
| 20260507212533 | 89 | 309 | 3.0 | 5.0 | 0.00 | 0.00 | 0.00 | 33 | |
| 20260507212407 | 89 | 309 | 3.0 | 5.0 | 0.00 | 0.00 | 0.00 | 33 | |
| 20260507212025 | 87 | 274 | 2.0 | 4.0 | 0.00 | 0.00 | 0.00 | 33 | |
| 20260507211908 | 87 | 274 | 2.0 | 4.0 | 0.00 | 0.00 | 0.00 | 33 | |
| 20260507211507 | 86 | 322 | 2.0 | 6.0 | 0.00 | 0.00 | 0.00 | 31 | |
| 20260507211409 | 86 | 322 | 2.0 | 6.0 | 0.00 | 0.00 | 0.00 | 31 | |
| 20260507210946 | 86 | 22 | 4.0 | 8.0 | 0.00 | 0.00 | 0.00 | 25 | |
| 20260507210907 | 86 | 22 | 4.0 | 8.0 | 0.00 | 0.00 | 0.00 | 25 | |
| 20260507210438 | 86 | 26 | 5.0 | 10.0 | 0.00 | 0.00 | 0.00 | 25 | |
| 20260507210407 | 86 | 26 | 5.0 | 10.0 | 0.00 | 0.00 | 0.00 | 25 | |
| 20260507205943 | 86 | 43 | 6.0 | 11.0 | 0.00 | 0.00 | 0.00 | 25 | |
| 20260507205907 | 86 | 43 | 6.0 | 11.0 | 0.00 | 0.00 | 0.00 | 25 | |
| 20260507205519 | 86 | 27 | 5.0 | 11.0 | 0.00 | 0.00 | 0.00 | 30 | |
| 20260507205407 | 86 | 27 | 5.0 | 11.0 | 0.00 | 0.00 | 0.00 | 30 | |
| 20260507204941 | 87 | 3 | 3.0 | 6.0 | 0.00 | 0.00 | 0.00 | 29 | |
| 20260507204907 | 87 | 3 | 3.0 | 6.0 | 0.00 | 0.00 | 0.00 | 29 | |
| 20260507204452 | 87 | 14 | 4.0 | 6.0 | 0.00 | 0.00 | 0.00 | 30 | |
| 20260507204407 | 87 | 14 | 4.0 | 6.0 | 0.00 | 0.00 | 0.00 | 30 | |
| 20260507203938 | 88 | 47 | 2.0 | 7.0 | 0.00 | 0.00 | 0.00 | 27 | |
| 20260507203907 | 88 | 47 | 2.0 | 7.0 | 0.00 | 0.00 | 0.00 | 27 | |
| 20260507203407 | 89 | 52 | 3.0 | 10.0 | 0.00 | 0.00 | 0.00 | 25 | |
| 20260507203011 | 90 | 49 | 5.0 | 10.0 | 0.00 | 0.00 | 0.00 | 24 | |
| 20260507202907 | 90 | 49 | 5.0 | 10.0 | 0.00 | 0.00 | 0.00 | 24 | |
| 20260507202407 | 92 | 72 | 5.0 | 10.0 | 0.00 | 0.00 | 0.00 | 24 | |
| 20260507201453 | 92 | 36 | 6.0 | 10.0 | 0.00 | 0.00 | 0.00 | 29 | |
| 20260507201407 | 92 | 36 | 6.0 | 10.0 | 0.00 | 0.00 | 0.00 | 29 | |
| 20260507200941 | 93 | 34 | 5.0 | 10.0 | 0.00 | 0.00 | 0.00 | 33 | |
| 20260507200907 | 93 | 34 | 5.0 | 10.0 | 0.00 | 0.00 | 0.00 | 33 | |
| 20260507200529 | 92 | 42 | 2.0 | 5.0 | 0.00 | 0.00 | 0.00 | 31 | |
| 20260507200407 | 92 | 42 | 2.0 | 5.0 | 0.00 | 0.00 | 0.00 | 31 | |
| 20260507195954 | 92 | 185 | 2.0 | 6.0 | 0.00 | 0.00 | 0.00 | 35 | |
| 20260507195907 | 92 | 185 | 2.0 | 6.0 | 0.00 | 0.00 | 0.00 | 35 | |
| 20260507195451 | 92 | 230 | 2.0 | 6.0 | 0.00 | 0.00 | 0.00 | 34 | |
| 20260507195407 | 92 | 230 | 2.0 | 6.0 | 0.00 | 0.00 | 0.00 | 34 | |
| 20260507194947 | 91 | 221 | 3.0 | 6.0 | 0.00 | 0.00 | 0.00 | 35 | |
| 20260507194907 | 91 | 221 | 3.0 | 6.0 | 0.00 | 0.00 | 0.00 | 35 | |
| 20260507194441 | 90 | 5 | 2.0 | 9.0 | 0.00 | 0.00 | 0.00 | 35 | |
| 20260507194408 | 90 | 5 | 2.0 | 9.0 | 0.00 | 0.00 | 0.00 | 35 | |
| 20260507193949 | 88 | 264 | 6.0 | 9.0 | 0.00 | 0.00 | 0.00 | 36 | |
| 20260507193907 | 88 | 264 | 6.0 | 9.0 | 0.00 | 0.00 | 0.00 | 36 | |
| 20260507193557 | 86 | 318 | 4.0 | 6.0 | 0.00 | 0.00 | 0.00 | 35 | |
| 20260507193407 | 86 | 318 | 4.0 | 6.0 | 0.00 | 0.00 | 0.00 | 35 | |
| 20260507192908 | 86 | 311 | 3.0 | 6.0 | 0.00 | 0.00 | 0.00 | 34 | |
| 20260507192407 | 86 | 357 | 4.0 | 11.0 | 0.00 | 0.00 | 0.00 | 34 | |
| 20260507191908 | 89 | 46 | 6.0 | 11.0 | 0.00 | 0.00 | 0.00 | 30 | |
| 20260507191409 | 89 | 9 | 3.0 | 9.0 | 0.00 | 0.00 | 0.00 | 33 | |
| 20260507190907 | 88 | 90 | 4.0 | 9.0 | 0.00 | 0.00 | 0.00 | 26 | |
| 20260507190409 | 88 | 71 | 5.0 | 10.0 | 0.00 | 0.00 | 0.00 | 26 | |
| 20260507185907 | 86 | 51 | 4.0 | 10.0 | 0.00 | 0.00 | 0.00 | 32 | |
| 20260507185605 | 86 | 43 | 2.0 | 7.0 | 0.00 | 0.00 | 0.00 | 34 | |
| 20260507185407 | 86 | 43 | 2.0 | 7.0 | 0.00 | 0.00 | 0.00 | 34 | |
| 20260507184907 | 85 | 359 | 4.0 | 7.0 | 0.00 | 0.00 | 0.00 | 35 | |
| 20260507184408 | 85 | 354 | 3.0 | 7.0 | 0.00 | 0.00 | 0.00 | 35 | |
| 20260507183907 | 86 | 273 | 2.0 | 8.0 | 0.00 | 0.00 | 0.00 | 35 | |
| 20260507183407 | 89 | 273 | 4.0 | 8.0 | 0.00 | 0.00 | 0.00 | 35 | |
| 20260507182907 | 89 | 321 | 3.0 | 6.0 | 0.00 | 0.00 | 0.00 | 35 | |
| 20260507182407 | 88 | 309 | 3.0 | 7.0 | 0.00 | 0.00 | 0.00 | 35 | |
| 20260507181907 | 89 | 312 | 3.0 | 7.0 | 0.00 | 0.00 | 0.00 | 35 | |
| 20260507181408 | 89 | 315 | 3.0 | 6.0 | 0.00 | 0.00 | 0.00 | 35 | |
| 20260507180907 | 88 | 313 | 3.0 | 5.0 | 0.00 | 0.00 | 0.00 | 35 | |
| 20260507180407 | 88 | 305 | 2.0 | 7.0 | 0.00 | 0.00 | 0.00 | 35 | |
| 20260507175907 | 87 | 298 | 3.0 | 7.0 | 0.00 | 0.00 | 0.00 | 35 | |
| 20260507175407 | 86 | 358 | 3.0 | 7.0 | 0.00 | 0.00 | 0.00 | 35 | |
| 20260507174907 | 86 | 304 | 3.0 | 7.0 | 0.00 | 0.00 | 0.00 | 35 | |
| 20260507174407 | 85 | 312 | 3.0 | 6.0 | 0.00 | 0.00 | 0.00 | 35 | |
| 20260507174252 | 85 | 8 | 3.0 | 5.0 | 0.00 | 0.00 | 0.00 | 35 | |
| 20260507173907 | 85 | 8 | 3.0 | 5.0 | 0.00 | 0.00 | 0.00 | 35 | |
| 20260507173407 | 86 | 301 | 3.0 | 5.0 | 0.00 | 0.00 | 0.00 | 35 | |
| 20260507173230 | 85 | 312 | 2.0 | 6.0 | 0.00 | 0.00 | 0.00 | 35 | |
| 20260507172907 | 85 | 312 | 2.0 | 6.0 | 0.00 | 0.00 | 0.00 | 35 | |
| 20260507172407 | 85 | 15 | 3.0 | 6.0 | 0.00 | 0.00 | 0.00 | 35 | |
| 20260507171907 | 85 | 318 | 2.0 | 5.0 | 0.00 | 0.00 | 0.00 | 35 | |
| 20260507171408 | 85 | 285 | 3.0 | 5.0 | 0.00 | 0.00 | 0.00 | 35 | |
| 20260507170907 | 84 | 355 | 2.0 | 4.0 | 0.00 | 0.00 | 0.00 | 35 | |
| 20260507170407 | 83 | 359 | 1.0 | 4.0 | 0.00 | 0.00 | 0.00 | 35 | |
| 20260507165947 | 83 | 312 | 2.0 | 7.0 | 0.00 | 0.00 | 0.00 | 35 | |
| 20260507165907 | 83 | 312 | 2.0 | 7.0 | 0.00 | 0.00 | 0.00 | 35 | |
| 20260507165407 | 83 | 294 | 3.0 | 7.0 | 0.00 | 0.00 | 0.00 | 35 | |
| 20260507164907 | 83 | 268 | 2.0 | 5.0 | 0.00 | 0.00 | 0.00 | 36 | |
| 20260507164503 | 84 | 255 | 4.0 | 5.0 | 0.00 | 0.00 | 0.00 | 36 | |
| 20260507164411 | 84 | 255 | 4.0 | 5.0 | 0.00 | 0.00 | 0.00 | 36 | |
| 20260507163907 | 83 | 278 | 2.0 | 5.0 | 0.00 | 0.00 | 0.00 | 35 | |
| 20260507163408 | 83 | 314 | 2.0 | 4.0 | 0.00 | 0.00 | 0.00 | 35 | |
| 20260507162907 | 83 | 354 | 2.0 | 5.0 | 0.00 | 0.00 | 0.00 | 35 | |
| 20260507162407 | 83 | 306 | 2.0 | 5.0 | 0.00 | 0.00 | 0.00 | 35 | |
| 20260507161912 | 82 | 356 | 2.0 | 6.0 | 0.00 | 0.00 | 0.00 | 35 | |
| 20260507161407 | 83 | 277 | 3.0 | 6.0 | 0.00 | 0.00 | 0.00 | 36 | |
| 20260507161324 | 82 | 310 | 2.0 | 6.0 | 0.00 | 0.00 | 0.00 | 35 | |
| 20260507160907 | 82 | 310 | 2.0 | 6.0 | 0.00 | 0.00 | 0.00 | 35 | |
| 20260507160407 | 81 | 343 | 1.0 | 3.0 | 0.00 | 0.00 | 0.00 | 35 | |
| 20260507155907 | 80 | 91 | 1.0 | 3.0 | 0.00 | 0.00 | 0.00 | 35 | |
| 20260507155407 | 80 | 108 | 1.0 | 5.0 | 0.00 | 0.00 | 0.00 | 36 | |
| 20260507154907 | 80 | 252 | 3.0 | 5.0 | 0.00 | 0.00 | 0.00 | 36 | |
| 20260507154407 | 79 | 262 | 1.0 | 3.0 | 0.00 | 0.00 | 0.00 | 36 | |
| 20260507153907 | 78 | 301 | 1.0 | 4.0 | 0.00 | 0.00 | 0.00 | 36 | |
| 20260507152907 | 78 | 268 | 3.0 | 4.0 | 0.00 | 0.00 | 0.00 | 35 | |
| 20260507152407 | 78 | 316 | 2.0 | 4.0 | 0.00 | 0.00 | 0.00 | 34 | |
| 20260507151910 | 78 | 315 | 1.0 | 4.0 | 0.00 | 0.00 | 0.00 | 34 | |
| 20260507151407 | 77 | 356 | 2.0 | 4.0 | 0.00 | 0.00 | 0.00 | 34 | |
| 20260507150909 | 76 | 344 | 1.0 | 4.0 | 0.00 | 0.00 | 0.00 | 35 | |
| 20260507150407 | 75 | 346 | 2.0 | 4.0 | 0.00 | 0.00 | 0.00 | 35 | |
| 20260507145907 | 75 | 340 | 1.0 | 3.0 | 0.00 | 0.00 | 0.00 | 35 | |
| 20260507145407 | 75 | 303 | 2.0 | 3.0 | 0.00 | 0.00 | 0.00 | 36 | |
| 20260507144907 | 74 | 354 | 2.0 | 3.0 | 0.00 | 0.00 | 0.00 | 35 | |
| 20260507144407 | 74 | 344 | 1.0 | 3.0 | 0.00 | 0.00 | 0.00 | 35 | |
| 20260507143907 | 74 | 358 | 1.0 | 3.0 | 0.00 | 0.00 | 0.00 | 35 | |
| 20260507143408 | 74 | 313 | 1.0 | 3.0 | 0.00 | 0.00 | 0.00 | 36 | |
| 20260507142907 | 73 | 291 | 2.0 | 3.0 | 0.00 | 0.00 | 0.00 | 36 | |
| 20260507142407 | 72 | 337 | 0.0 | 2.0 | 0.00 | 0.00 | 0.00 | 35 | |
| 20260507141907 | 71 | 266 | 1.0 | 3.0 | 0.00 | 0.00 | 0.00 | 36 | |
| 20260507141407 | 70 | 315 | 1.0 | 3.0 | 0.00 | 0.00 | 0.00 | 36 | |
| 20260507140907 | 69 | 264 | 1.0 | 3.0 | 0.00 | 0.00 | 0.00 | 36 | |
| 20260507140408 | 69 | 327 | 1.0 | 3.0 | 0.00 | 0.00 | 0.00 | 36 | |
| 20260507135908 | 69 | 227 | 1.0 | 3.0 | 0.00 | 0.00 | 0.00 | 36 | |
| 20260507135408 | 68 | 259 | 2.0 | 3.0 | 0.00 | 0.00 | 0.00 | 36 | |
| 20260507134907 | 66 | 326 | 0.0 | 2.0 | 0.00 | 0.00 | 0.00 | 36 | |
| 20260507134407 | 65 | 14 | 0.0 | 3.0 | 0.00 | 0.00 | 0.00 | 36 | |
| 20260507133907 | 65 | 42 | 1.0 | 3.0 | 0.00 | 0.00 | 0.00 | 36 | |
| 20260507133416 | 64 | 40 | 1.0 | 3.0 | 0.00 | 0.00 | 0.00 | 36 | |
| 20260507132907 | 63 | 45 | 0.0 | 1.0 | 0.00 | 0.00 | 0.00 | 36 | |
| 20260507132407 | 62 | 93 | 0.0 | 2.0 | 0.00 | 0.00 | 0.00 | 36 | |
| 20260507131908 | 61 | 128 | 1.0 | 3.0 | 0.00 | 0.00 | 0.00 | 37 | |
| 20260507131407 | 60 | 128 | 2.0 | 3.0 | 0.00 | 0.00 | 0.00 | 36 | |
| 20260507130907 | 59 | 129 | 2.0 | 3.0 | 0.00 | 0.00 | 0.00 | 36 | |
| 20260507130407 | 57 | 130 | 2.0 | 3.0 | 0.00 | 0.00 | 0.00 | 36 | |
| 20260507125909 | 56 | 118 | 1.0 | 3.0 | 0.00 | 0.00 | 0.00 | 36 | |
| 20260507125410 | 55 | 130 | 1.0 | 3.0 | 0.00 | 0.00 | 0.00 | 36 | |
| 20260507124909 | 55 | 131 | 0.0 | 3.0 | 0.00 | 0.00 | 0.00 | 36 | |
| 20260507124407 | 54 | 122 | 0.0 | 0.0 | 0.00 | 0.00 | 0.00 | 37 | |
| 20260507123907 | 54 | 93 | 0.0 | 0.0 | 0.00 | 0.00 | 0.00 | 36 | |
| 20260507123407 | 54 | 93 | 0.0 | 0.0 | 0.00 | 0.00 | 0.00 | 36 | |
| 20260507122909 | 54 | 109 | 0.0 | 0.0 | 0.00 | 0.00 | 0.00 | 36 | |
| 20260507122408 | 54 | 124 | 0.0 | 0.0 | 0.00 | 0.00 | 0.00 | 37 | |
| 20260507121907 | 54 | 135 | 0.0 | 0.0 | 0.00 | 0.00 | 0.00 | 36 | |
| 20260507121407 | 54 | 118 | 0.0 | 0.0 | 0.00 | 0.00 | 0.00 | 36 | |
| 20260507120907 | 54 | 106 | 0.0 | 0.0 | 0.00 | 0.00 | 0.00 | 36 | |
| 20260507120407 | 54 | 76 | 0.0 | 0.0 | 0.00 | 0.00 | 0.00 | 36 | |
| 20260507115907 | 54 | 43 | 0.0 | 0.0 | 0.00 | 0.00 | 0.00 | 35 | |
| 20260507115407 | 54 | 79 | 0.0 | 0.0 | 0.00 | 0.00 | 0.00 | 35 | |
| 20260507114908 | 55 | 57 | 0.0 | 0.0 | 0.00 | 0.00 | 0.00 | 35 | |
| 20260507114407 | 55 | 63 | 0.0 | 0.0 | 0.00 | 0.00 | 0.00 | 35 | |
| 20260507113907 | 56 | 48 | 0.0 | 0.0 | 0.00 | 0.00 | 0.00 | 35 | |
| 20260507113407 | 56 | 50 | 0.0 | 0.0 | 0.00 | 0.00 | 0.00 | 35 | |
| 20260507112907 | 56 | 71 | 0.0 | 0.0 | 0.00 | 0.00 | 0.00 | 36 | |
| 20260507112413 | 56 | 68 | 0.0 | 0.0 | 0.00 | 0.00 | 0.00 | 36 | |
| 20260507111907 | 56 | 121 | 0.0 | 0.0 | 0.00 | 0.00 | 0.00 | 36 | |
| 20260507111407 | 56 | 114 | 0.0 | 0.0 | 0.00 | 0.00 | 0.00 | 36 | |
| 20260507110907 | 56 | 120 | 0.0 | 0.0 | 0.00 | 0.00 | 0.00 | 36 | |
| 20260507110407 | 56 | 116 | 0.0 | 0.0 | 0.00 | 0.00 | 0.00 | 36 | |
| 20260507105907 | 55 | 174 | 0.0 | 0.0 | 0.00 | 0.00 | 0.00 | 36 | |
| 20260507105407 | 56 | 134 | 0.0 | 0.0 | 0.00 | 0.00 | 0.00 | 36 | |
| 20260507104907 | 56 | 150 | 0.0 | 0.0 | 0.00 | 0.00 | 0.00 | 36 | |
| 20260507104407 | 56 | 133 | 0.0 | 0.0 | 0.00 | 0.00 | 0.00 | 36 | |
| 20260507103907 | 56 | 118 | 0.0 | 0.0 | 0.00 | 0.00 | 0.00 | 36 | |
| 20260507103407 | 55 | 129 | 0.0 | 0.0 | 0.00 | 0.00 | 0.00 | 36 | |
| 20260507102907 | 55 | 135 | 0.0 | 0.0 | 0.00 | 0.00 | 0.00 | 37 | |
| 20260507102408 | 55 | 147 | 0.0 | 0.0 | 0.00 | 0.00 | 0.00 | 37 | |
| 20260507101907 | 55 | 133 | 0.0 | 0.0 | 0.00 | 0.00 | 0.00 | 36 | |
| 20260507101407 | 55 | 135 | 0.0 | 0.0 | 0.00 | 0.00 | 0.00 | 36 | |
| 20260507100908 | 54 | 119 | 0.0 | 0.0 | 0.00 | 0.00 | 0.00 | 36 | |
| 20260507100407 | 54 | 62 | 0.0 | 0.0 | 0.00 | 0.00 | 0.00 | 35 | |
| 20260507095907 | 55 | 45 | 0.0 | 0.0 | 0.00 | 0.00 | 0.00 | 35 | |
| 20260507095407 | 55 | 45 | 0.0 | 0.0 | 0.00 | 0.00 | 0.00 | 35 | |
| 20260507094907 | 55 | 45 | 0.0 | 0.0 | 0.00 | 0.00 | 0.00 | 35 | |
| 20260507094407 | 55 | 60 | 0.0 | 0.0 | 0.00 | 0.00 | 0.00 | 35 | |
| 20260507093907 | 55 | 45 | 0.0 | 0.0 | 0.00 | 0.00 | 0.00 | 35 | |
| 20260507093407 | 55 | 49 | 0.0 | 0.0 | 0.00 | 0.00 | 0.00 | 35 | |
| 20260507092907 | 55 | 48 | 0.0 | 0.0 | 0.00 | 0.00 | 0.00 | 35 | |
| 20260507092407 | 55 | 45 | 0.0 | 0.0 | 0.00 | 0.00 | 0.00 | 35 | |
| 20260507091907 | 56 | 25 | 0.0 | 0.0 | 0.00 | 0.00 | 0.00 | 35 | |
| 20260507091408 | 56 | 359 | 0.0 | 0.0 | 0.00 | 0.00 | 0.00 | 36 | |
| 20260507090908 | 57 | 218 | 0.0 | 0.0 | 0.00 | 0.00 | 0.00 | 36 | |
| 20260507090407 | 57 | 270 | 0.0 | 0.0 | 0.00 | 0.00 | 0.00 | 36 | |
| 20260507085907 | 58 | 278 | 0.0 | 0.0 | 0.00 | 0.00 | 0.00 | 35 | |
| 20260507085407 | 58 | 233 | 0.0 | 0.0 | 0.00 | 0.00 | 0.00 | 36 | |
| 20260507084907 | 59 | 202 | 0.0 | 0.0 | 0.00 | 0.00 | 0.00 | 36 | |
| 20260507084407 | 59 | 203 | 0.0 | 0.0 | 0.00 | 0.00 | 0.00 | 36 | |
| 20260507083907 | 59 | 196 | 0.0 | 3.0 | 0.00 | 0.00 | 0.00 | 36 | |
| 20260507083408 | 60 | 198 | 0.0 | 5.0 | 0.00 | 0.00 | 0.00 | 36 | |
| 20260507082907 | 60 | 198 | 1.0 | 5.0 | 0.00 | 0.00 | 0.00 | 37 | |
| 20260507082408 | 60 | 205 | 1.0 | 5.0 | 0.00 | 0.00 | 0.00 | 36 | |
| 20260507081907 | 60 | 210 | 1.0 | 5.0 | 0.00 | 0.00 | 0.00 | 36 | |
| 20260507081459 | 60 | 215 | 1.0 | 5.0 | 0.00 | 0.00 | 0.00 | 36 | |
| 20260507081407 | 60 | 215 | 1.0 | 5.0 | 0.00 | 0.00 | 0.00 | 36 | |
| 20260507081036 | 60 | 207 | 2.0 | 5.0 | 0.00 | 0.00 | 0.00 | 36 | |
| 20260507080907 | 60 | 207 | 2.0 | 5.0 | 0.00 | 0.00 | 0.00 | 36 | |
| 20260507080407 | 60 | 209 | 2.0 | 5.0 | 0.00 | 0.00 | 0.00 | 37 | |
| 20260507075938 | 60 | 191 | 2.0 | 5.0 | 0.00 | 0.00 | 0.00 | 36 | |
| 20260507075907 | 60 | 191 | 2.0 | 5.0 | 0.00 | 0.00 | 0.00 | 36 | |
| 20260507075539 | 60 | 185 | 0.0 | 3.0 | 0.00 | 0.00 | 0.00 | 37 | |
| 20260507075407 | 60 | 185 | 0.0 | 3.0 | 0.00 | 0.00 | 0.00 | 37 | |
| 20260507075022 | 60 | 190 | 0.0 | 2.0 | 0.00 | 0.00 | 0.00 | 36 | |
| 20260507074907 | 60 | 190 | 0.0 | 2.0 | 0.00 | 0.00 | 0.00 | 36 | |
| 20260507074407 | 60 | 165 | 0.0 | 1.0 | 0.00 | 0.00 | 0.00 | 36 | |
| 20260507073907 | 60 | 132 | 0.0 | 1.0 | 0.00 | 0.00 | 0.00 | 36 | |
| 20260507073407 | 59 | 207 | 0.0 | 0.0 | 0.00 | 0.00 | 0.00 | 36 | |
| 20260507072907 | 59 | 217 | 0.0 | 0.0 | 0.00 | 0.00 | 0.00 | 36 | |
| 20260507072407 | 59 | 233 | 0.0 | 0.0 | 0.00 | 0.00 | 0.00 | 36 | |
| 20260507071907 | 59 | 298 | 0.0 | 0.0 | 0.00 | 0.00 | 0.00 | 36 | |
| 20260507071409 | 59 | 290 | 0.0 | 0.0 | 0.00 | 0.00 | 0.00 | 36 | |
| 20260507070945 | 58 | 256 | 0.0 | 0.0 | 0.00 | 0.00 | 0.00 | 36 | |
| 20260507070907 | 58 | 256 | 0.0 | 0.0 | 0.00 | 0.00 | 0.00 | 36 | |
| 20260507070438 | 58 | 277 | 0.0 | 0.0 | 0.00 | 0.00 | 0.00 | 36 | |
| 20260507070407 | 58 | 277 | 0.0 | 0.0 | 0.00 | 0.00 | 0.00 | 36 | |
| 20260507065907 | 58 | 13 | 0.0 | 0.0 | 0.00 | 0.00 | 0.00 | 35 |